Wind_Speed
31 31 30 31 30 31 32 32 33 33 34 33 34 35 35 36 37 37 36 35 36 36 36 36 36 36 37 38 38 39 39 38 39 40 40 41 42 43 43 43 44 43 42
29 29 30 30 31 31 32 33 34 34 34 35 35 36 37 37 37 37 37 36 36 36 36 36 37 37 37 38 38 38 38 39 39 40 40 41 41 42 43 44 44 44 43
27 28 29 30 31 32 32 33 34 34 34 35 36 36 37 37 37 37 37 37 37 37 36 36 38 37 37 38 38 38 39 40 41 41 41 41 40 41 42 43 43 43 43
27 28 28 30 31 31 32 32 33 35 35 35 37 37 37 37 36 37 37 37 37 37 36 36 36 36 37 38 38 38 39 39 40 40 41 41 40 41 41 42 43 43 44
26 27 28 29 31 32 33 33 33 34 35 36 37 37 37 37 37 37 37 37 37 37 37 37 36 36 37 37 37 39 39 39 40 40 40 41 41 41 42 42 43 44 45
26 26 28 29 30 32 33 33 34 34 35 36 36 37 38 37 37 37 37 37 37 38 38 38 38 38 37 37 38 39 39 40 40 40 41 41 41 42 43 43 43 44 45
25 26 27 29 31 31 32 33 34 34 34 35 35 36 36 36 37 38 38 38 38 38 38 38 38 38 38 38 39 39 39 40 40 41 41 42 42 42 43 43 43 43 43
24 25 27 28 30 31 32 32 33 34 35 36 36 36 37 38 38 39 39 39 38 38 38 39 39 39 39 39 39 39 40 40 40 41 41 42 43 44 44 44 44 44 43
23 25 26 27 29 30 32 33 33 34 35 36 37 37 38 39 39 40 40 40 40 39 39 40 40 40 40 40 40 40 40 40 40 41 41 42 43 43 43 44 44 44 44
23 24 26 27 28 30 31 33 34 35 36 36 38 38 39 39 39 39 39 39 40 40 39 39 39 39 39 39 40 40 39 40 40 40 40 41 41 42 43 43 44 45 45
23 24 25 27 28 29 31 32 34 35 36 37 37 38 38 37 38 39 39 39 39 39 39 39 39 39 39 38 39 39 39 39 39 40 40 41 42 42 43 43 44 45 46
24 25 26 27 28 30 31 32 33 34 35 36 37 37 37 36 37 37 37 37 37 38 38 38 39 39 39 39 39 39 39 39 39 40 40 41 41 42 43 44 44 45 47
24 25 26 27 28 29 31 32 33 34 35 35 36 36 36 36 36 36 35 36 36 36 37 38 38 39 39 39 40 40 40 40 40 40 40 40 41 42 43 44 44 45 46
24 25 26 27 28 30 31 32 33 34 34 34 35 36 36 36 36 36 36 37 37 37 38 38 39 40 40 40 40 41 41 41 41 41 41 41 42 42 43 44 44 45 46
25 25 26 28 29 30 31 32 33 33 34 34 35 35 36 36 36 37 37 37 38 39 39 40 40 40 40 40 40 41 41 41 42 42 42 42 42 42 43 44 44 45 46
26 27 28 29 29 30 31 31 31 32 32 33 34 35 36 36 37 37 37 37 38 39 40 40 40 41 41 41 41 41 41 41 41 42 42 43 43 43 44 45 45 46 46
28 28 29 30 30 31 31 31 31 31 32 33 34 35 35 36 36 37 37 38 38 39 40 40 40 41 41 41 41 41 40 40 41 41 42 43 44 45 45 46 46 45 45
29 30 30 30 31 31 31 31 31 32 33 33 34 35 35 35 36 36 37 38 39 39 40 40 41 41 41 41 42 41 41 41 42 42 43 44 44 45 45 45 45 45 45
30 30 31 32 32 32 32 32 32 33 33 33 34 34 34 35 35 36 37 38 38 39 39 40 41 41 42 42 42 42 42 42 43 43 44 44 44 44 44 44 44 44 45
31 32 32 32 32 33 33 32 32 32 32 32 32 33 34 35 36 36 37 37 38 38 39 40 40 41 41 41 42 42 43 43 43 43 43 44 44 44 43 43 44 44 44
33 33 32 32 32 33 32 32 32 32 31 31 31 32 33 34 35 36 37 38 38 39 39 39 40 40 40 41 42 42 42 42 41 41 41 42 42 42 42 43 43 43 43
34 34 34 34 33 33 32 31 31 31 31 31 32 33 34 35 36 37 38 38 39 39 39 39 40 40 40 40 40 40 40 40 39 39 39 40 40 40 41 41 42 41 42
35 36 36 35 34 33 32 32 32 32 32 32 32 33 34 35 36 37 37 38 38 39 39 39 39 39 38 38 38 37 37 38 38 38 38 38 38 39 40 40 40 40 40
36 36 36 35 34 34 34 34 33 33 33 33 33 34 34 34 35 36 37 38 38 38 38 38 38 37 37 37 37 37 37 37 37 37 36 36 37 38 39 40 40 40 40
36 36 35 34 34 34 34 33 33 33 33 33 33 33 33 34 34 35 36 37 37 37 37 37 37 36 36 36 36 36 36 35 35 35 35 36 37 38 39 40 40 40 39
36 35 34 34 34 34 33 33 33 33 33 33 33 33 33 34 34 35 36 36 37 37 37 36 35 35 35 35 35 35 35 35 35 35 36 36 38 39 39 40 40 39 39
Wind_Direction
242 241 242 242 243 244 246 248 250 251 253 257 260 261 265 266 267 268 269 271 272 274 274 275 274 275 275 275 275 275 275 274 274 273 273 272 272 271 270 270 270 270 271
241 242 243 244 245 246 249 250 251 254 256 258 261 263 264 266 268 270 270 270 273 275 275 275 275 276 277 276 275 275 274 275 275 274 273 273 272 271 269 269 269 268 270
242 243 244 245 246 247 250 253 254 257 258 260 262 265 266 267 269 270 272 273 274 275 275 275 276 277 278 278 277 276 275 275 275 274 274 273 272 271 270 268 268 269 269
243 245 246 247 248 249 251 254 256 258 260 262 264 267 267 268 270 271 272 273 274 274 275 277 279 279 278 279 278 277 276 276 275 275 275 275 274 271 270 269 269 269 269
247 248 249 250 251 252 254 255 259 260 261 263 264 267 268 268 270 271 271 272 274 275 276 279 281 281 280 280 279 279 278 277 276 275 275 275 275 274 272 271 270 270 271
250 251 251 252 254 254 255 258 260 261 261 262 264 267 267 267 269 271 272 272 275 276 278 279 280 282 282 281 281 280 279 278 277 276 275 275 276 276 274 272 271 271 272
252 253 254 255 257 256 257 259 261 261 261 263 264 265 266 266 268 269 271 273 275 277 278 279 280 281 282 282 282 282 281 280 279 278 277 276 276 276 275 274 273 273 272
255 257 258 259 260 260 260 261 262 262 262 264 264 265 266 268 270 271 272 273 275 277 278 279 280 281 282 282 283 283 282 281 280 279 278 277 276 276 276 275 274 273 273
257 259 261 262 264 264 263 263 263 265 266 266 266 267 269 270 270 271 271 273 274 276 278 279 280 280 281 282 282 283 282 282 281 280 279 278 277 277 277 277 276 275 275
261 262 263 264 266 266 265 265 265 267 267 269 269 269 271 270 270 271 271 272 274 275 277 279 280 280 281 281 282 283 282 282 282 281 281 280 279 279 278 278 277 277 277
263 265 265 266 267 267 268 268 268 268 268 269 270 271 272 272 272 272 272 273 273 274 276 278 279 280 281 282 282 283 282 282 282 282 282 282 281 280 280 279 278 278 278
267 267 267 267 268 269 270 270 271 270 270 271 271 272 273 273 273 274 275 275 275 276 277 278 279 280 281 281 282 283 283 282 282 282 282 282 282 281 281 280 280 280 280
271 272 272 272 272 272 272 271 271 271 270 271 272 272 273 273 274 275 275 275 276 277 278 280 281 281 282 282 282 283 283 282 282 282 282 282 282 281 282 281 281 282 281
275 275 276 277 277 277 276 274 273 272 271 271 272 272 272 273 273 274 274 275 276 277 279 280 281 282 282 283 283 283 282 281 281 281 282 283 283 282 282 282 282 283 282
276 277 278 280 280 280 279 277 275 273 272 272 272 272 272 273 273 274 274 275 277 278 280 281 282 283 283 283 283 283 283 282 281 281 282 283 283 283 283 284 284 284 283
278 278 280 282 283 282 281 280 277 275 273 273 272 272 272 273 273 273 274 275 277 279 280 281 282 283 283 284 284 284 283 282 282 282 282 283 283 283 284 284 284 284 284
280 280 281 282 283 283 282 281 279 277 275 274 274 273 273 273 272 273 274 276 278 280 281 282 282 283 283 284 284 284 283 283 283 283 283 283 283 284 285 285 285 285 286
281 280 281 282 283 284 283 282 281 279 277 276 275 274 274 273 274 274 275 277 279 280 281 282 283 284 284 284 284 283 283 283 283 283 284 285 286 286 286 286 286 286 287
283 283 283 283 284 283 282 281 280 280 278 277 276 275 275 275 275 277 278 279 280 282 283 284 285 285 285 284 284 284 283 283 283 284 285 286 286 287 287 287 287 287 287
284 285 284 284 284 284 282 281 280 280 279 279 278 277 276 276 277 278 280 281 282 283 284 284 285 285 285 285 285 284 284 283 283 284 286 287 288 288 288 288 288 287 287
284 284 283 283 284 284 282 280 280 280 279 279 279 279 278 278 278 280 281 282 283 284 285 285 286 286 286 285 285 285 285 285 285 286 287 288 289 289 289 289 289 288 287
283 282 282 282 282 282 281 280 281 281 282 281 281 281 281 280 280 281 282 283 284 285 285 286 287 287 287 287 286 286 286 286 286 287 289 290 290 291 290 290 289 289 289
282 282 281 280 280 280 280 281 281 282 282 283 284 284 283 283 282 282 282 283 284 285 285 286 287 287 287 287 287 287 287 287 288 289 290 291 291 291 291 291 291 292 292
282 282 280 279 278 278 280 281 281 281 282 283 285 285 285 284 283 283 283 284 284 285 285 285 285 286 286 286 287 288 288 289 289 289 290 291 292 292 291 292 293 293 293
282 281 280 279 278 278 279 281 281 281 282 283 285 285 286 285 285 285 285 285 286 286 286 285 285 285 286 286 286 287 288 288 289 290 291 292 293 293 293 294 293 293 294
282 281 280 279 278 278 279 281 281 281 282 283 284 284 285 286 287 286 287 287 287 286 286 285 285 285 286 286 287 288 288 289 289 291 292 293 294 294 293 293 293 293 293
Height
5753 5755 5757 5760 5762 5764 5766 5768 5769 5771 5772 5772 5773 5774 5774 5774 5774 5774 5773 5774 5773 5772 5771 5770 5769 5768 5767 5766 5765 5764 5763 5762 5761 5760 5760 5759 5758 5758 5757 5757 5756 5756 5756
5747 5749 5752 5754 5756 5757 5759 5761 5762 5763 5765 5765 5766 5766 5766 5765 5765 5765 5765 5765 5764 5763 5762 5761 5760 5759 5758 5756 5755 5754 5753 5752 5751 5750 5749 5750 5749 5747 5746 5746 5745 5745 5745
5741 5743 5745 5747 5749 5751 5752 5754 5755 5756 5757 5757 5757 5757 5757 5757 5757 5756 5756 5756 5756 5755 5754 5753 5751 5750 5748 5747 5745 5744 5743 5742 5741 5739 5739 5738 5738 5737 5736 5735 5735 5734 5734
5735 5737 5739 5741 5742 5744 5745 5746 5748 5748 5749 5749 5750 5749 5749 5749 5749 5748 5748 5747 5747 5746 5745 5744 5742 5740 5739 5737 5736 5734 5733 5732 5731 5729 5728 5727 5726 5726 5726 5725 5724 5723 5723
5730 5731 5732 5734 5735 5737 5738 5739 5740 5741 5741 5741 5742 5741 5741 5741 5740 5740 5739 5739 5738 5737 5736 5735 5733 5731 5730 5728 5726 5725 5723 5722 5721 5719 5718 5717 5716 5714 5714 5715 5714 5713 5712
5723 5725 5726 5727 5728 5729 5730 5731 5732 5732 5732 5733 5733 5733 5733 5733 5732 5731 5731 5730 5729 5728 5727 5725 5724 5722 5720 5718 5717 5715 5713 5712 5710 5709 5707 5706 5705 5704 5703 5703 5703 5702 5701
5717 5718 5719 5720 5721 5722 5722 5723 5723 5723 5724 5724 5724 5725 5724 5724 5723 5722 5722 5721 5720 5719 5717 5716 5714 5713 5711 5709 5707 5705 5704 5702 5700 5698 5697 5695 5694 5693 5692 5691 5691 5690 5689
5711 5712 5713 5713 5714 5714 5714 5714 5715 5715 5716 5716 5715 5715 5715 5715 5714 5713 5712 5711 5710 5709 5708 5706 5705 5703 5701 5699 5698 5696 5694 5692 5690 5688 5686 5684 5683 5681 5680 5679 5679 5678 5678
5705 5706 5706 5706 5707 5707 5707 5706 5707 5707 5707 5706 5706 5706 5705 5705 5704 5703 5702 5701 5700 5699 5698 5696 5695 5693 5691 5689 5688 5685 5683 5681 5679 5677 5675 5673 5672 5670 5668 5667 5666 5665 5665
5699 5699 5699 5700 5699 5699 5699 5698 5698 5698 5698 5697 5697 5696 5696 5695 5694 5693 5692 5691 5690 5689 5688 5686 5685 5683 5681 5679 5677 5675 5673 5671 5669 5666 5664 5662 5661 5659 5657 5656 5654 5652 5651
5692 5692 5692 5692 5692 5691 5690 5690 5689 5689 5689 5688 5687 5686 5686 5685 5684 5683 5682 5681 5680 5679 5678 5676 5675 5673 5671 5669 5667 5665 5662 5660 5658 5656 5654 5652 5650 5648 5646 5644 5642 5640 5638
5685 5685 5685 5684 5684 5683 5682 5681 5680 5680 5679 5678 5678 5677 5676 5675 5674 5673 5672 5671 5670 5669 5668 5666 5665 5663 5661 5659 5657 5655 5652 5650 5648 5645 5643 5641 5639 5637 5634 5632 5630 5628 5625
5679 5678 5677 5676 5675 5674 5673 5672 5671 5670 5669 5669 5668 5667 5666 5665 5664 5663 5662 5661 5660 5659 5658 5656 5655 5653 5651 5649 5646 5644 5642 5639 5637 5635 5632 5630 5628 5625 5623 5620 5618 5615 5612
5671 5670 5669 5668 5667 5665 5664 5663 5662 5660 5659 5659 5658 5657 5656 5655 5654 5653 5652 5651 5650 5649 5648 5646 5644 5642 5640 5638 5636 5633 5631 5628 5626 5624 5621 5619 5616 5614 5611 5609 5606 5603 5600
5663 5662 5661 5659 5658 5656 5655 5653 5652 5650 5649 5648 5647 5646 5645 5644 5644 5643 5642 5641 5640 5638 5637 5635 5633 5631 5629 5627 5624 5622 5619 5617 5615 5612 5610 5607 5605 5602 5599 5597 5594 5590 5587
5656 5654 5653 5651 5649 5647 5645 5643 5642 5640 5639 5638 5637 5636 5635 5634 5633 5632 5631 5630 5629 5627 5626 5624 5622 5620 5618 5615 5613 5610 5608 5605 5603 5600 5598 5595 5593 5590 5587 5584 5581 5578 5574
5647 5646 5644 5642 5640 5638 5636 5634 5632 5630 5629 5628 5626 5625 5624 5623 5622 5621 5620 5619 5618 5616 5614 5612 5610 5608 5606 5603 5601 5598 5595 5593 5591 5588 5586 5583 5580 5578 5575 5571 5568 5565 5561
5638 5636 5635 5633 5631 5628 5626 5624 5622 5620 5619 5617 5616 5615 5614 5613 5612 5611 5609 5608 5606 5605 5603 5600 5598 5596 5593 5591 5588 5586 5583 5581 5578 5576 5573 5571 5568 5565 5562 5559 5555 5552 5548
5628 5627 5625 5623 5621 5619 5617 5615 5613 5611 5609 5608 5606 5605 5603 5602 5601 5600 5598 5597 5595 5593 5591 5589 5586 5584 5581 5578 5576 5573 5571 5568 5566 5563 5560 5557 5555 5552 5548 5545 5542 5539 5535
5619 5617 5615 5613 5611 5609 5607 5605 5603 5601 5599 5598 5596 5594 5593 5592 5591 5589 5587 5586 5584 5582 5579 5577 5574 5571 5569 5566 5563 5560 5558 5556 5553 5550 5547 5544 5541 5538 5534 5532 5529 5526 5522
5609 5607 5605 5603 5601 5599 5597 5595 5593 5592 5590 5588 5586 5585 5583 5581 5580 5578 5576 5574 5572 5570 5568 5565 5562 5559 5556 5553 5550 5547 5545 5542 5540 5537 5534 5531 5527 5524 5521 5518 5515 5512 5508
5599 5596 5595 5593 5591 5589 5587 5585 5584 5582 5580 5579 5577 5575 5573 5571 5569 5567 5565 5563 5561 5558 5556 5553 5550 5547 5544 5541 5538 5535 5532 5530 5527 5525 5522 5518 5515 5512 5508 5505 5502 5498 5495
5588 5586 5584 5583 5581 5579 5577 5575 5574 5572 5570 5569 5567 5564 5562 5560 5558 5556 5554 5551 5549 5547 5544 5541 5539 5535 5532 5529 5526 5523 5521 5518 5515 5513 5510 5507 5503 5500 5497 5493 5490 5486 5483
5577 5575 5573 5572 5570 5569 5567 5565 5563 5562 5560 5558 5556 5554 5552 5549 5547 5544 5542 5540 5538 5535 5532 5530 5527 5524 5521 5518 5515 5513 5510 5507 5504 5501 5498 5495 5492 5489 5485 5482 5478 5474 5470
5566 5564 5562 5561 5560 5558 5557 5555 5553 5551 5549 5548 5546 5544 5541 5539 5536 5534 5531 5528 5526 5523 5521 5519 5516 5513 5511 5508 5505 5502 5499 5496 5494 5490 5488 5484 5481 5478 5474 5470 5466 5463 5459
5554 5552 5551 5550 5548 5547 5546 5544 5542 5540 5539 5538 5536 5533 5531 5528 5526 5523 5520 5517 5515 5512 5509 5507 5505 5502 5500 5497 5494 5492 5489 5486 5483 5480 5477 5474 5470 5466 5463 5459 5455 5451 5447